Find Starlink 33901

NORAD ID: 63878 Int'l Des: 2025-094 Owner: SPXS Country: US Constellation: starlink operational
LEOCIRCULAR

当前视图

正在加载3D地球...

About Starlink 33901

Starlink 33901 (NORAD 63878) is a starlink constellation satellite (v2 mini) launched May 10, 2025 by SPXS of US. It operates in LEO, CIRCULAR orbit with a mass of 575.00 kg.

即将过境

Passes for default location (London). Set your location on the main map for personalized predictions.

高度历史

Loading altitude history...

两行轨道根数

1 63878U 25094Q 26262.99604525 .00009526 00000-0 33531-3 0 9990
2 63878 69.9986 102.3379 0003198 69.5631 290.5888 15.29588839 76367
Epoch: Sep 19, 2026 • Age: 15 hours

当前状态

高度 479.0 km
远地点 / 近地点 N/A
速度 7.63 km/s
星下点 12.70°N, 55.18°E
发射日期 May 10, 2025
运行时间 1.3 years
类型 internet

技术详情

分类 Payload
质量 575.00 kg
干质量 530.00 kg
长度 0.30 m
跨度 29.00 m
形状 ? Box + pan
制造商 SPXS
平台类型 Starlink V2MO
阶段状态 In Orbit
所有者/国家 SPXS/US

Most Searched